Location: St. Louis
(38.6270°N, 90.1994°W)
Time: 08:37:32
(UTC-06:00)

Transit 4A - Pass Details

Date: 04 December 2021
Orbit: 864 x 981 km, 66.8° (Epoch: 19 January)

Event Time Altitude Azimuth Distance (km) Brightness Sun altitude
Rises 21:01:29 0° 269° (W) 3,476 11.5 -50.4°
Enters shadow 21:04:19 - 287° (WNW) 2,796 10.9 -50.9°
Reaches altitude 10° 21:05:45 10° 299° (WNW) 2,565 - -51.2°
Maximum altitude 21:08:05 12° 322° (NW) 2,418 - -51.7°
Drops below altitude 10° 21:10:27 10° 346° (NNW) 2,600 - -52.1°
Sets 21:14:52 0° 15° (NNE) 3,577 - -53.0°
